When you browse on this site, cookies collect data to enhance your experience and personalize the content and advertising you see.
Visit our Privacy Policy to learn more. By continuing to use the site, you agree to this use of cookies and data.
  • In Slovakia
  • List of Countries
  • For 7 days
  • Water Temperature
  • Satellite Maps
  • Weather Map
  • Weather Widgets
  • user-avatar
    Login

    Hourly Weather Yeghegnadzor

    Today, 25 June, Tuesday

    Time Temperature Precipitation Wind Pressure Humidity
    00:00 +24°C° 0 mm 2 mps 654 mmHg 64%
    01:00 +23°C° 0 mm 2 mps 654 mmHg 65%
    02:00 +21°C° 0 mm 2 mps 654 mmHg 66%
    03:00 +21°C° 0 mm 2 mps 654 mmHg 67%
    04:00 +23°C° 0 mm 1 mps 654 mmHg 65%
    05:00 +23°C° 0 mm 1 mps 655 mmHg 63%
    06:00 +24°C° 0 mm 1 mps 655 mmHg 62%
    07:00 +26°C° 0 mm 1 mps 655 mmHg 56%
    08:00 +28°C° 0 mm 1 mps 656 mmHg 51%
    09:00 +29°C° 0 mm 1 mps 656 mmHg 45%
    10:00 +30°C° 0 mm 1 mps 656 mmHg 42%
    11:00 +31°C° 0 mm 1 mps 656 mmHg 39%
    12:00 +32°C° 0 mm 1 mps 656 mmHg 36%
    13:00 +32°C° 0.1 mm 2 mps 656 mmHg 37%
    14:00 +32°C° 0.1 mm 2 mps 656 mmHg 38%
    15:00 +33°C° 0.1 mm 3 mps 656 mmHg 39%
    16:00 +33°C° 0.1 mm 3 mps 655 mmHg 42%
    17:00 +31°C° 0.1 mm 3 mps 655 mmHg 44%
    18:00 +30°C° 0.1 mm 2 mps 655 mmHg 47%
    19:00 +28°C° 0 mm 3 mps 655 mmHg 53%
    20:00 +26°C° 0 mm 3 mps 655 mmHg 58%
    21:00 +24°C° 0 mm 3 mps 655 mmHg 64%
    22:00 +22°C° 0 mm 3 mps 655 mmHg 63%
    23:00 +22°C° 0 mm 3 mps 654 mmHg 63%

    Tomorrow, 26 June, Wednesday

    Time Temperature Precipitation Wind Pressure Humidity
    00:00 +23°C° 0 mm 2 mps 654 mmHg 63%
    01:00 +21°C° 0 mm 2 mps 654 mmHg 63%
    02:00 +21°C° 0 mm 2 mps 654 mmHg 63%
    03:00 +20°C° 0 mm 2 mps 654 mmHg 63%
    04:00 +21°C° 0 mm 2 mps 654 mmHg 61%
    05:00 +23°C° 0 mm 2 mps 655 mmHg 60%
    06:00 +24°C° 0 mm 1 mps 655 mmHg 59%
    07:00 +26°C° 0 mm 1 mps 656 mmHg 53%
    08:00 +27°C° 0 mm 1 mps 656 mmHg 47%
    09:00 +29°C° 0 mm 1 mps 656 mmHg 41%
    10:00 +30°C° 0.1 mm 1 mps 656 mmHg 39%
    11:00 +31°C° 0.1 mm 1 mps 656 mmHg 37%
    12:00 +32°C° 0.1 mm 1 mps 656 mmHg 35%
    13:00 +32°C° 0.2 mm 2 mps 656 mmHg 36%
    14:00 +32°C° 0.2 mm 2 mps 655 mmHg 37%
    15:00 +32°C° 0.2 mm 2 mps 655 mmHg 38%
    16:00 +31°C° 0.1 mm 2 mps 655 mmHg 41%
    17:00 +30°C° 0.1 mm 2 mps 654 mmHg 43%
    18:00 +30°C° 0.1 mm 3 mps 654 mmHg 45%
    19:00 +28°C° 0.4 mm 3 mps 654 mmHg 52%
    20:00 +25°C° 0.4 mm 3 mps 654 mmHg 58%
    21:00 +22°C° 0.4 mm 3 mps 653 mmHg 64%
    22:00 +22°C° 0.1 mm 3 mps 653 mmHg 64%
    23:00 +21°C° 0.1 mm 2 mps 653 mmHg 63%

    Day after tomorrow, 27 June, Thursday

    Time Temperature Precipitation Wind Pressure Humidity
    00:00 +21°C° 0.1 mm 2 mps 653 mmHg 63%
    01:00 +20°C° 0.1 mm 2 mps 652 mmHg 64%
    02:00 +20°C° 0.1 mm 2 mps 652 mmHg 64%
    03:00 +21°C° 0.1 mm 1 mps 652 mmHg 65%
    04:00 +21°C° 0.3 mm 1 mps 653 mmHg 65%
    05:00 +22°C° 0.3 mm 1 mps 653 mmHg 65%
    06:00 +23°C° 0.3 mm 1 mps 653 mmHg 65%
    07:00 +24°C° 0.2 mm 1 mps 653 mmHg 59%
    08:00 +26°C° 0.2 mm 1 mps 654 mmHg 53%
    09:00 +28°C° 0.2 mm 1 mps 654 mmHg 48%
    10:00 +29°C° 0.5 mm 1 mps 654 mmHg 45%
    11:00 +30°C° 0.5 mm 1 mps 653 mmHg 43%
    12:00 +30°C° 0.5 mm 2 mps 653 mmHg 40%
    13:00 +31°C° 0.5 mm 2 mps 653 mmHg 40%
    14:00 +31°C° 0.5 mm 2 mps 653 mmHg 39%
    15:00 +31°C° 0.5 mm 2 mps 652 mmHg 38%
    16:00 +30°C° 0.3 mm 2 mps 652 mmHg 42%
    17:00 +29°C° 0.3 mm 2 mps 652 mmHg 46%
    18:00 +28°C° 0.3 mm 2 mps 651 mmHg 49%
    19:00 +26°C° 0.9 mm 2 mps 651 mmHg 57%
    20:00 +24°C° 0.9 mm 3 mps 651 mmHg 65%
    21:00 +21°C° 0.9 mm 3 mps 651 mmHg 72%
    22:00 +21°C° 0.4 mm 2 mps 651 mmHg 72%
    23:00 +21°C° 0.4 mm 2 mps 650 mmHg 71%

    28 June, Friday

    Time Temperature Precipitation Wind Pressure Humidity
    00:00 +22°C° 0.4 mm 1 mps 650 mmHg 70%
    01:00 +21°C° 0.3 mm 1 mps 650 mmHg 72%
    02:00 +21°C° 0.3 mm 1 mps 650 mmHg 74%
    03:00 +20°C° 0.3 mm 1 mps 649 mmHg 75%
    04:00 +21°C° 0.1 mm 1 mps 649 mmHg 73%
    05:00 +21°C° 0.1 mm 1 mps 650 mmHg 71%
    06:00 +22°C° 0.1 mm 1 mps 650 mmHg 69%
    07:00 +24°C° 0.1 mm 1 mps 650 mmHg 64%
    08:00 +25°C° 0.1 mm 1 mps 650 mmHg 59%
    09:00 +27°C° 0.1 mm 1 mps 650 mmHg 54%
    10:00 +28°C° 0.5 mm 1 mps 650 mmHg 50%
    11:00 +29°C° 0.5 mm 1 mps 650 mmHg 46%
    12:00 +30°C° 0.5 mm 1 mps 650 mmHg 42%
    13:00 +30°C° 0.6 mm 2 mps 649 mmHg 44%
    14:00 +29°C° 0.6 mm 3 mps 649 mmHg 45%
    15:00 +29°C° 0.6 mm 4 mps 648 mmHg 47%
    16:00 +28°C° 0.5 mm 3 mps 648 mmHg 49%
    17:00 +27°C° 0.5 mm 3 mps 648 mmHg 51%
    18:00 +26°C° 0.5 mm 2 mps 648 mmHg 53%
    19:00 +25°C° 0.4 mm 2 mps 648 mmHg 61%
    20:00 +23°C° 0.4 mm 2 mps 649 mmHg 69%
    21:00 +21°C° 0.4 mm 1 mps 649 mmHg 76%
    22:00 +21°C° 0.4 mm 1 mps 648 mmHg 78%
    23:00 +21°C° 0.4 mm 1 mps 648 mmHg 80%

    29 June, Saturday

    Time Temperature Precipitation Wind Pressure Humidity
    00:00 +18°C° 0.4 mm 0 mps 648 mmHg 81%
    01:00 +18°C° 0.1 mm 0 mps 648 mmHg 82%
    02:00 +18°C° 0.1 mm 0 mps 648 mmHg 82%
    03:00 +17°C° 0.1 mm 0 mps 647 mmHg 83%
    04:00 +18°C° 0.1 mm 0 mps 647 mmHg 80%
    05:00 +18°C° 0.1 mm 0 mps 648 mmHg 78%
    06:00 +19°C° 0.1 mm 0 mps 648 mmHg 75%
    07:00 +22°C° 0.4 mm 1 mps 648 mmHg 71%
    08:00 +23°C° 0.4 mm 1 mps 648 mmHg 66%
    09:00 +25°C° 0.4 mm 1 mps 648 mmHg 62%
    10:00 +26°C° 0.9 mm 2 mps 648 mmHg 58%
    11:00 +27°C° 0.9 mm 2 mps 648 mmHg 54%
    12:00 +28°C° 0.9 mm 2 mps 648 mmHg 50%
    13:00 +28°C° 0.4 mm 2 mps 648 mmHg 46%
    14:00 +29°C° 0.4 mm 3 mps 648 mmHg 43%
    15:00 +30°C° 0.4 mm 3 mps 647 mmHg 39%
    16:00 +29°C° 0.4 mm 3 mps 647 mmHg 43%
    17:00 +28°C° 0.4 mm 3 mps 647 mmHg 46%
    18:00 +28°C° 0.4 mm 3 mps 647 mmHg 49%
    19:00 +26°C° 1.3 mm 3 mps 647 mmHg 59%
    20:00 +22°C° 1.3 mm 3 mps 647 mmHg 69%
    21:00 +20°C° 1.3 mm 3 mps 647 mmHg 79%
    22:00 +20°C° 0.8 mm 2 mps 647 mmHg 80%
    23:00 +20°C° 0.8 mm 2 mps 647 mmHg 81%

    30 June, Sunday

    Time Temperature Precipitation Wind Pressure Humidity
    00:00 +19°C° 0.8 mm 2 mps 647 mmHg 82%
    01:00 +20°C° 0.7 mm 1 mps 647 mmHg 83%
    02:00 +19°C° 0.7 mm 1 mps 647 mmHg 84%
    03:00 +19°C° 0.7 mm 1 mps 647 mmHg 85%
    04:00 +19°C° 0.4 mm 1 mps 647 mmHg 82%
    05:00 +20°C° 0.4 mm 1 mps 647 mmHg 80%
    06:00 +18°C° 0.4 mm 0 mps 648 mmHg 77%
    07:00 +21°C° 0.6 mm 1 mps 648 mmHg 74%
    08:00 +23°C° 0.6 mm 2 mps 648 mmHg 70%
    09:00 +24°C° 0.6 mm 2 mps 648 mmHg 66%
    10:00 +25°C° 1 mm 2 mps 648 mmHg 63%
    11:00 +25°C° 1 mm 2 mps 648 mmHg 59%
    12:00 +26°C° 1 mm 2 mps 648 mmHg 56%
    13:00 +27°C° 0.4 mm 2 mps 648 mmHg 53%
    14:00 +28°C° 0.4 mm 2 mps 648 mmHg 50%
    15:00 +28°C° 0.4 mm 3 mps 648 mmHg 47%
    16:00 +27°C° 0.5 mm 2 mps 648 mmHg 52%
    17:00 +26°C° 0.5 mm 2 mps 647 mmHg 58%
    18:00 +25°C° 0.5 mm 1 mps 647 mmHg 63%
    19:00 +24°C° 0.4 mm 1 mps 648 mmHg 66%
    20:00 +23°C° 0.4 mm 2 mps 648 mmHg 69%
    21:00 +20°C° 0.4 mm 2 mps 648 mmHg 72%
    22:00 +20°C° 0.4 mm 2 mps 648 mmHg 74%
    23:00 +19°C° 0.4 mm 2 mps 648 mmHg 76%
    Show more